Tracking 17264 objects as of 2-September-2015
HD Live streaming from Space Station

Track Soyuz TMA-18M
and Space Station

MERIDIAN 3

Track MERIDIAN 3 now!
MERIDIAN 3 is classified as:


NORAD ID: 37212
Int'l Code: 2010-058A
Perigee: 2,236.7 km
Apogee: 38,135.9 km
Inclination: 62.9 °
Period: 717.9 minutes
Semi major axis: 26557 km
RCS: 24.3984 m2 (large)
Launch date: November 2, 2010
Source: Commonwealth of Independent States (former USSR) (CIS)

MERIDIAN 3 is a Russian military communications satellite.
Your satellite tracking list
Your tracking list is empty





NASA's NSSDC Master Catalog

Two Line Element Set (TLE):
1 37212U 10058A   15245.23377968  .00000145  00000-0  10000-3 0  9995
2 37212  62.8899 148.1141 6758813 274.7454 343.5598  2.00598045 35390

Source of the keplerian elements: AFSPC

N2YO: 406